{"data":{"norad_id":47904,"epoch":"2026-09-20T04:31:39.887904Z","epoch_age_seconds":56151,"freshness":"FRESH","line1":"1 47904U 21021AW  26263.18865611 -.00002131  00000+0 -56922-4 0  9991","line2":"2 47904  53.1606  70.0947 0001189  91.3987 268.7151 15.31698228306217","mean_motion":15.31698228,"eccentricity":0.0001189,"inclination_deg":53.1606,"raan_deg":70.0947,"arg_perigee_deg":91.3987,"mean_anomaly_deg":268.7151,"bstar":-5.6922e-5,"rev_number":30621,"period_min":94.013296723615,"perigee_km":469.93094536774,"apogee_km":471.55960957332,"semimajor_km":6848.8822774705,"source":"CELESTRAK","updated_at":"2026-09-20T09:00:38.757278Z"}}